{"data":{"norad_id":45431,"epoch":"2026-09-20T02:24:49.991904Z","epoch_age_seconds":49208,"freshness":"FRESH","line1":"1 45431U 20020H   26263.10057861  .00000287  00000+0  77336-3 0  9993","line2":"2 45431  87.8964   2.2026 0001629  98.2918 261.8394 13.11419189315097","mean_motion":13.11419189,"eccentricity":0.0001629,"inclination_deg":87.8964,"raan_deg":2.2026,"arg_perigee_deg":98.2918,"mean_anomaly_deg":261.8394,"bstar":0.00077336,"rev_number":31509,"period_min":109.80470715074,"perigee_km":1216.4366758309,"apogee_km":1218.9113910656,"semimajor_km":7595.8110334483,"source":"CELESTRAK","updated_at":"2026-09-20T09:00:44.553399Z"}}